This demonstration page uses our WeatherBlox Daily Observations layout. Learn more.

Left ArrowRight Arrow

39.12711, -84.51439

Hourly Observations for August 7, 2016

Temp ( °F °C ) Dew Point ( °F °C ) Humidity (%) Winds ( mph kmh ) Pressure ( in mb ) Visibility ( mi km ) Precip ( " mm )
12:53 am 00:53 Clear 66 18.9 65 18.3 96 96 N N/A 29.95 1014 10 16 N/A
1:53 am 01:53 Clear 66 18.9 65 18.3 96 96 N N/A 29.94 1014 10 16 N/A
2:53 am 02:53 Clear 64 17.8 64 17.8 100 100 N N/A 29.94 1014 9 14 N/A
3:53 am 03:53 Clear 64 17.8 64 17.8 100 100 ENE 3 6 29.94 1014 9 14 N/A
4:53 am 04:53 Clear 64 17.8 64 17.8 100 100 N N/A 29.96 1015 10 16 N/A
5:53 am 05:53 Clear 63 17.2 63 17.2 100 100 ENE 3 6 29.97 1015 7 11 N/A
6:53 am 06:53 Sunny 63 17.2 63 17.2 100 100 NE 3 6 29.98 1015 10 16 N/A
7:53 am 07:53 Sunny 66 18.9 66 18.9 100 100 N N/A 29.99 1016 8 13 N/A
8:53 am 08:53 Sunny 71 21.7 66 18.9 84 84 NE 3 6 30.00 1016 10 16 N/A
9:53 am 09:53 Sunny 76 24.4 66 18.9 72 72 NE 5 7 30.00 1016 10 16 N/A
10:53 am 10:53 Sunny 80 26.7 65 18.3 60 60 N N/A 30.01 1016 10 16 N/A
11:53 am 11:53 Sunny 83 28.3 66 18.9 57 57 NE 8 13 30.01 1016 10 16 N/A
12:53 pm 12:53 Partly Cloudy 85 29.4 62 16.7 46 46 ENE 8 13 30.01 1016 10 16 N/A
1:53 pm 13:53 Partly Cloudy 86 30 64 17.8 48 48 E 7 11 29.99 1016 10 16 N/A
2:53 pm 14:53 Partly Cloudy 82 27.8 62 16.7 51 51 ENE 7 11 29.98 1015 10 16 N/A
3:53 pm 15:53 Partly Cloudy 86 30 64 17.8 48 48 NE 10 17 29.97 1015 10 16 N/A
4:53 pm 16:53 Partly Cloudy 84 28.9 63 17.2 49 49 E 9 15 29.96 1015 10 16 N/A
5:53 pm 17:53 Partly Cloudy 85 29.4 62 16.7 46 46 ENE 7 11 29.96 1014 10 16 N/A
6:53 pm 18:53 Sunny 83 28.3 62 16.7 49 49 E 5 7 29.94 1014 10 16 N/A
7:53 pm 19:53 Sunny 81 27.2 62 16.7 53 53 E 5 7 29.95 1014 10 16 N/A
8:53 pm 20:53 Clear 74 23.3 65 18.3 74 74 N N/A 29.96 1015 10 16 N/A
9:53 pm 21:53 Clear 70 21.1 65 18.3 84 84 N N/A 29.97 1015 10 16 N/A
10:53 pm 22:53 Clear 69 20.6 65 18.3 87 87 N N/A 29.98 1015 10 16 N/A
11:53 pm 23:53 Clear 67 19.4 65 18.3 93 93 N N/A 29.98 1015 10 16 N/A

Powered by AerisWeather